Portada
METAR-TAF:

METAR-TAF

Aeroports :

Montauk, Nova York, Estats Units d'Amèrica

latitud: 41-04-23N, longitud: 071-55-24W, altitud: 2 m

Observació

L'informe es va fer fa 56 minuts, a les 11:54 UTC
Vent 9 kt del Est/Nord-Est amb ràfegues de 15 kt, variant entre Nord-Est i Est
Temperatura 6°C
Humitat 87%
Pressió 1023 hPa

METAR: KMTP 251154Z AUTO 07009G15KT 040V100 06/04 A3020 RMK AO1 SLP227 7//// T00560039 10056 20050 55016

Hora: 07:50 (12:50 UTC)


TAF: manca

Observacions i pronòstics meteorològics de més de 4000 aeroports (METAR i TAF).

Les estacions disponibles són els punts grocs i vermells al mapa.

Posi el ratolí al punt desitjat per veure el nom de l'estació.

Feu clic per veure les observacions i els pronòstics meteorològics.

Per canviar el mapa: feu clic els botons verds amb una creu de color negre per apropar; al botó verd amb un guió per allunyar la imatge; o en les fletxes verdes per a mapes adjacents.


METAR-TAF: